Find Starlink 3900

NORAD ID: 52461 Int'l Des: 2022-049 Owner: SPXS Country: US Constellation: starlink operational
LEOCIRCULAR

リアルタイム位置

3D地球を読み込み中...

Starlink 3900について

説明を読み込み中...

次回通過

Passes for default location (London). Set your location on the main map for personalized predictions.

高度履歴

Loading altitude history...

軌道要素

1 52461U 22049L 26122.85766151 .00000021 00000-0 19403-4 0 9991
2 52461 53.2167 165.9512 0001057 95.6004 264.5109 15.08840987220562
Epoch: May 2, 2026 • Age: 11 hours

現在のステータス

高度 554.5 km
速度 7.58 km/s
衛星直下点 -42.50°S, 58.18°E
打ち上げ日 May 6, 2022
運用期間 3.9 years
タイプ internet

技術仕様

分類 Payload
質量 297.00 kg
乾燥質量 220.00 kg
総質量 297.00 kg
長さ 0.20 m
直径 2.80 m
スパン 9.00 m
形状 Box + pan
製造者 SPXS
バスタイプ Starlink
フェーズステータス In Orbit
所有者/国 SPXS/US

Most Searched